Flag for Tunisia Weather past 2 weeks in Houmt Souk (Djerba), Tunisia

Now
55 °F

Clear.


Feels Like: 55 °F
Forecast: 54 / 62 °F
Wind: 5 mph from Southwest

Location: Djerba Mellita

Current Time: Mar 4, 2015 at 2:12:12 AM

Latest Report: Mar 4, 2015 at 1:30 AM


Visibility: 5 mi

Pressure: 30.30 "Hg

Humidity: 72%

Dew point: 46 °F

Location of Houmt Souk (Djerba)Location

Historic Weather in Houmt Souk (Djerba) — Graph

°F

Houmt Souk (Djerba) temperature yesterday

Maximum temperature yesterday: 70 °F (at 3:00 PM)
Minimum temperature yesterday: 54 °F (at 1:00 AM)
Average temperature yesterday: 61 °F

Past Weeks' High & Low Weather Summary

 TemperatureHumidityPressure
High70 °F (Mar 3, 3:00 PM)100% (Feb 17, 3:30 AM)30.36 "Hg (Feb 17, 3:30 AM)
Low46 °F (Feb 17, 7:00 AM)37% (Feb 27, 4:30 PM)29.45 "Hg (Feb 22, 2:30 AM)
Average56 °F71%29.98 "Hg
* Reported Feb 17 1:00 AM — Mar 4 1:00 AM, Houmt Souk (Djerba), Weather by CustomWeather, © 2015

Note: Actual official high and low records may vary slightly from our data, if they occured in-between our weather recording intervals... More about our weather records

Advertising

Houmt Souk (Djerba) weather history for previous 24 hours

 ConditionsComfort  
Time TempWeatherWind HumidityBarometerVisibility
1:00 AM
Wed, Mar 4
57 °FClear.6 mph67%30.30 "Hg5 mi
12:30 AM57 °FClear.7 mph72%30.30 "Hg10 mi
12:00 AM59 °FClear.7 mph72%30.30 "Hg10 mi
11:30 PM
Tue, Mar 3
59 °FClear.8 mph72%30.30 "Hg10 mi
11:00 PM59 °FClear.7 mph72%30.30 "Hg10 mi
10:30 PM59 °FClear.8 mph72%30.30 "Hg10 mi
10:00 PM61 °FClear.7 mph68%30.30 "Hg10 mi
9:00 PM64 °FClear.7 mph60%30.30 "Hg10 mi
8:30 PM63 °FClear.7 mph64%30.30 "Hg10 mi
8:00 PM63 °FClear.6 mph64%30.30 "Hg10 mi
7:30 PM63 °FClear.8 mph64%30.30 "Hg10 mi
7:00 PM63 °FClear.6 mph64%30.30 "Hg10 mi
6:30 PM64 °FClear.5 mph60%30.27 "Hg10 mi
6:00 PM66 °FSunny.5 mph56%30.27 "Hg10 mi
5:30 PM68 °FSunny.6 mph49%30.27 "Hg10 mi
5:00 PM70 °FSunny.8 mph43%30.27 "Hg10 mi
4:30 PM70 °FSunny.8 mph46%30.27 "Hg10 mi
4:00 PM70 °FSunny.10 mph43%30.27 "Hg10 mi
3:30 PM70 °FSunny.10 mph43%30.27 "Hg10 mi
3:00 PM70 °FSunny.12 mph43%30.27 "Hg10 mi
2:30 PM68 °FSunny.13 mph46%30.27 "Hg10 mi
2:00 PM68 °FSunny.12 mph46%30.27 "Hg10 mi
1:30 PM68 °FSunny.14 mph46%30.30 "Hg10 mi
1:00 PM66 °FSunny.13 mph49%30.30 "Hg10 mi
11:30 AM64 °FSunny.14 mph52%30.33 "Hg10 mi
11:00 AM64 °FSunny.15 mph52%30.33 "Hg10 mi
10:30 AM63 °FSunny.14 mph56%30.33 "Hg10 mi
10:00 AM63 °FSunny.16 mph56%30.33 "Hg10 mi
9:30 AM61 °FSunny.16 mph55%30.33 "Hg10 mi
9:00 AM61 °FSunny.14 mph59%30.33 "Hg10 mi
8:30 AM59 °FSunny.12 mph63%30.30 "Hg10 mi
8:00 AM59 °FSunny.10 mph63%30.30 "Hg10 mi
7:30 AM59 °FSunny.12 mph59%30.30 "Hg10 mi
7:00 AM57 °FSunny.12 mph63%30.27 "Hg10 mi
6:30 AM57 °FPassing clouds.12 mph63%30.27 "HgN/A
6:00 AM57 °FPassing clouds.13 mph63%30.27 "HgN/A
5:30 AM57 °FPassing clouds.13 mph63%30.27 "HgN/A
5:00 AM55 °FPassing clouds.10 mph72%30.27 "HgN/A
4:30 AM57 °FPassing clouds.10 mph67%30.27 "HgN/A
4:00 AM57 °FPassing clouds.10 mph67%30.27 "HgN/A
3:30 AM55 °FCool.10 mph77%30.27 "HgN/A
3:00 AM55 °FCool.9 mph77%30.27 "HgN/A
2:30 AM55 °FPassing clouds.8 mph77%30.30 "Hg5 mi
2:00 AM55 °FPassing clouds.9 mph77%30.30 "Hg5 mi
Weather by CustomWeather, © 2015

See weather overviewHow to use our weather pages